EHI
0 0 0 0 0 0 0 0 0 0 0 0 0 0 0 0 0 0 0 0 0 0 0 0 0 0 0 0 0 0 0 0 0 0 0 0 0 0 0 0 0 0 0
0 0 0 0 0 0 0 0 0 0 0 0 0 0 0 0 0 0 0 0 0 0 0 0 0 0 0 0 0 0 0 0 0 0 0 0 0 0 0 0 0 0 0
0 0 0 0 0 0 0 0 0 0 0 0 0 0 0 0 0 0 0 0 0 0 0 0 0 0 0 0 0 0 0 0 0 0 0 0 0 0 0 0 0 0 0
0 0 0 0 0 0 0 0 0 0 0 0 0 0 0 0 0 0 0 0 0 0 0 0 0 0 0 0 0 0 0 0 0 0 0 0 0 0 0 0 0 0 0
0 0 0 0 0 0 0 0 0 0 0 0 0 0 0 0 0 0 0 0 0 0 0 0 0 0 0 0 0 0 0 0 0 0 0 0 0 0 0 0 0 0 0
0 0 0 0 0 0 0 0 0 0 0 0 0 0 0 0 0 0 0 0 0 0 0 0 0 0 0 0 0 0 0 0 0 0 0 0 0 0 0 0 0 0 0
0 0 0 0 0 0 0 0 0 0 0 0 0 0 0 0 0 0 0 0 0 0 0 0 0 0 0 0 0 0 0 0 0 0 0 0 0 0 0 0 0 0 0
0 0 0 0 0 0 0 0 0 0 0 0 0 0 0 0 0 0 0 0 0 0 0 0 0 0 0 0 0 0 0 0 0 0 0 0 0 0 0 0 0 0 0
0 0 0 0 0 0 0 0 0 0 0 0 0 0 0 0 0 0 0 0 0 0 0 0 0 0 0 0 0 0 0 0 0 0 0 0 0 0 0 0 0 0 0
0 0 0 0 0 0 0 0 0 0 0 0 0 0 0 0 0 0 0 0 0 0 0 0 0 0 0 0 0 0 0 0 0 0 0 0 0 0 0 0 0 0 0
0 0 0 0 0 0 0 0 0 0 0 0 0 0 0 0 0 0 0 0 0 0 0 0 0 0 0 0 0 0 0 0 0 0 0 0 0 0 0 0 0 0 0
0 0 0 0 0 0 0 0 0 0 0 0 0 0 0 0 0 0 0 0 0 0 0 0 0 0 0 0 0 0 0 0 0 0 0 0 0 0 0 0 0 0 0
0 0 0 0 0 0 0 0 0 0 0 0 0 0 0 0 0 0 0 0 0 0 0 0 0 0 0 0 0 0 0 0 0 0 0 0 0 0 0 0 0 0 0
0 0 0 0 0 0 0 0 0 0 0 0 0 0 0 0 0 0 0 0 0 0 0 0 0 0 0 0 0 0 0 0 0 0 0 0 0 0 0 0 0 0 0
0 0 0 0 0 0 0 0 0 0 0 0 0 0 0 0 0 0 0 0 0 0 0 0 0 0 0 0 0 0 0 0 0 0 0 0 0 0 0 0 0 0 0
0 0 0 0 0 0 0 0 0 0 0 0 0 0 0 0 0 0 0 0 0 0 0 0 0 0 0 0 0 0 0 0 0 0 0 0 0 0 0 0 0 0 0
0 0 0 0 0 0 0 0 0 0 0 0 0 0 0 0 0 0 0 0 0 0 0 0 0 0 0 0 0 0 0 0 0 0 0 0 0 0 0 0 0 0 0
0 0 0 0 0 0 0 0 0 0 0 0 0 0 0 0 0 0 0 0 0 0 0 0 0 0 0 0 0 0 0 0 0 0 0 0 0 0 0 0 0 0 0
0 0 0 0 0 0 0 0 0 0 0 0 0 0 0 0 0 0 0 0 0 0 0 0 0 0 0 0 0 0 0 0 0 0 0 0 0 0 0 0 0 0 0
0 0 0 0 0 0 0 0 0 0 0 0 0 0 0 0 0 0 0 0 0 0 0 0 0 0 0 0 0 0 0 0 0 0 0 0 0 0 0 0 0 0 0
0 0 0 0 0 0 0 0 0 0 0 0 0 0 0 0 0 0 0 0 0 0 0 0 0 0 0 0 0 0 0 0 0 0 0 0 0 0 0 0 0 0 0
0 0 0 0 0 0 0 0 0 0 0 0 0 0 0 0 0 0 0 0 0 0 0 0 0 0 0 0 0 0 0 0 0 0 0 0 0 0 0 0 0 0 0
0 0 0 0 0 0 0 0 0 0 0 0 0 0 0 0 0 0 0 0 0 0 0 0 0 0 0 0 0 0 0 0 0 0 0 0 0 0 0 0 0 0 0
0 0 0 0 0 0 0 0 0 0 0 0 0 0 0 0 0 0 0 0 0 0 0 0 0 0 0 0 0 0 0 0 0 0 0 0 0 0 0 0 0 0 0
0 0 0 0 0 0 0 0 0 0 0 0 0 0 0 0 0 0 0 0 0 0 0 0 0 0 0 0 0 0 0 0 0 0 0 0 0 0 0 0 0 0 0
0 0 0 0 0 0 0 0 0 0 0 0 0 0 0 0 0 0 0 0 0 0 0 0 0 0 0 0 0 0 0 0 0 0 0 0 0 0 0 0 0 0 0
Wind_Speed
6 6 6 5 4 3 2 2 1 1 3 4 5 5 5 6 5 4 2 2 2 2 3 3 3 3 2 2 2 2 3 3 4 3 2 2 1 1 1 3 4 6 9
6 6 5 4 3 3 2 2 2 4 5 5 5 5 3 3 2 4 3 2 3 2 2 2 3 2 3 2 2 3 3 4 4 4 3 3 4 3 2 4 4 4 6
6 5 5 4 2 2 3 3 3 4 4 4 3 1 1 2 1 1 2 3 3 3 2 2 2 1 1 1 2 2 2 3 3 3 3 3 3 2 2 3 4 3 4
5 4 4 3 2 2 3 3 3 3 3 3 3 2 2 2 3 2 1 1 2 2 2 2 1 1 2 2 1 0 1 1 2 2 3 2 2 2 2 3 3 3 3
6 6 6 5 4 4 4 5 5 6 6 5 5 6 6 5 6 7 6 4 4 3 2 2 2 5 6 3 1 1 2 1 0 1 2 1 1 1 2 2 3 2 2
6 6 6 6 6 6 6 6 6 7 7 7 7 7 8 8 10 10 7 5 5 4 4 2 2 5 6 6 4 3 1 1 1 1 1 1 2 2 2 2 2 1 2
7 7 7 7 7 7 7 7 6 7 7 7 8 7 8 9 13 13 11 6 5 4 4 3 1 2 4 3 6 6 4 4 3 1 1 1 1 0 1 1 1 1 1
7 7 7 7 7 7 7 7 7 6 6 6 7 6 6 9 15 14 13 6 4 4 4 3 3 2 3 3 1 2 3 4 4 2 1 2 2 1 1 1 1 1 1
6 6 7 7 7 7 6 6 6 5 5 5 5 6 6 8 14 15 13 5 4 4 3 3 5 4 7 7 4 2 1 1 3 4 4 4 4 3 3 2 2 1 0
6 6 6 6 6 7 6 5 4 4 4 4 4 5 5 5 11 15 14 5 5 4 3 4 8 6 6 7 5 4 3 1 1 2 2 2 2 2 1 0 1 0 0
5 5 5 5 5 6 6 5 5 5 4 4 4 3 4 5 8 12 13 5 5 4 3 3 4 6 6 6 5 3 2 3 2 2 2 1 2 1 0 1 0 1 0
3 3 4 5 6 6 5 6 6 6 6 6 5 5 4 4 7 9 11 9 8 4 4 3 4 7 6 5 4 4 5 4 2 3 3 3 3 2 2 2 2 1 1
3 3 4 5 5 6 6 6 6 6 5 5 5 5 5 6 8 14 11 10 10 4 3 4 5 6 5 3 3 4 4 3 3 4 3 3 2 2 3 3 3 2 2
3 3 4 5 5 6 5 5 6 6 6 6 6 6 5 6 7 8 7 7 8 6 4 4 5 7 5 5 4 4 4 4 4 3 3 2 2 3 3 3 2 2 2
4 4 5 4 4 5 5 5 5 5 4 4 4 5 5 6 7 10 7 6 5 5 5 4 5 5 6 6 5 5 5 5 5 4 3 3 3 3 3 3 3 3 3
4 4 3 3 3 4 5 4 7 6 6 8 8 6 4 6 8 10 11 12 13 11 7 6 7 7 7 7 6 6 6 6 5 4 4 4 3 3 3 3 3 3 3
5 4 3 3 2 2 3 4 3 2 4 7 8 8 7 8 10 10 9 9 12 12 8 7 7 7 6 6 6 6 6 5 5 5 5 4 4 4 4 4 4 4 4
5 4 3 2 2 3 2 2 2 3 2 2 2 4 5 7 10 12 11 7 8 8 6 6 6 6 6 6 6 5 5 5 5 5 5 5 5 4 4 4 4 4 3
4 3 3 2 1 2 2 2 2 3 3 2 2 1 2 2 5 10 9 6 6 6 5 6 6 5 5 5 5 5 5 5 5 5 5 5 5 4 4 4 3 5 4
4 3 3 1 0 1 1 2 2 2 3 3 4 3 4 4 4 5 5 5 5 5 4 5 5 5 5 5 4 4 4 4 5 5 4 4 4 4 4 5 4 4 3
4 3 1 3 0 2 1 2 2 3 3 3 3 2 3 3 3 3 3 4 4 4 4 4 4 4 4 4 4 4 5 4 4 4 4 4 4 3 3 3 4 4 4
2 4 3 1 2 2 1 1 2 2 3 4 3 2 1 2 2 2 3 3 3 3 3 3 3 2 2 2 3 4 4 4 4 4 4 4 3 3 3 3 4 4 4
2 1 2 2 3 3 2 1 2 2 3 3 3 2 2 2 2 2 2 3 2 2 2 2 2 1 2 2 3 4 4 4 4 4 4 3 3 3 3 4 4 4 4
3 2 1 2 3 3 3 2 2 2 2 3 3 3 3 2 2 3 3 2 2 2 2 2 2 3 4 4 4 4 4 4 5 5 6 4 3 3 3 3 3 4 3
4 3 2 2 2 3 3 2 2 2 3 2 3 3 3 3 3 3 2 2 3 2 2 2 2 3 6 8 6 4 5 7 6 6 4 3 4 4 3 3 3 3 4
4 3 2 2 1 2 2 2 2 3 3 3 3 3 3 3 3 3 3 2 2 3 2 2 2 3 5 5 5 5 6 8 9 10 4 2 4 3 3 2 3 4 4
Wind_Direction
44 54 59 62 63 67 63 59 64 248 248 248 252 251 218 197 193 167 200 188 237 245 204 208 218 222 211 221 223 222 218 201 227 254 228 218 197 232 225 263 231 184 195
34 44 50 49 43 27 351 315 284 273 266 263 252 246 199 154 163 155 181 181 221 246 240 212 217 210 205 217 213 222 223 214 214 241 242 224 219 218 206 252 253 205 195
33 37 37 37 24 349 315 296 277 269 277 274 262 264 114 130 146 144 180 211 222 224 230 224 224 185 194 195 204 222 229 236 217 223 242 230 223 211 211 242 257 258 239
29 36 38 25 1 330 321 318 318 321 317 320 331 8 57 62 32 5 341 291 279 257 231 225 215 119 85 54 51 67 229 257 243 232 244 241 225 206 191 220 245 245 253
31 33 29 28 25 22 16 11 11 9 4 10 14 24 35 43 31 14 354 340 324 314 303 273 132 117 113 106 82 29 14 341 284 255 260 248 223 195 211 207 225 246 254
42 40 35 35 30 28 27 25 25 23 17 21 23 34 45 36 23 21 6 342 330 329 323 332 145 165 164 174 184 196 207 316 340 338 279 269 248 221 212 202 208 224 254
44 39 36 38 37 33 31 29 33 37 34 34 34 43 54 33 19 12 2 332 307 306 309 313 312 113 150 195 204 210 221 222 227 319 358 327 323 270 166 190 207 208 218
40 43 39 35 35 34 35 35 34 39 43 42 36 41 49 35 19 9 353 320 298 300 304 321 335 25 46 26 21 205 198 183 200 200 70 57 52 60 106 148 163 139 99
37 41 41 36 31 29 31 35 32 32 40 49 38 35 38 30 18 10 360 330 331 329 340 20 34 55 40 28 4 351 61 113 143 120 101 97 89 79 88 84 87 93 324
34 36 42 40 35 28 23 24 26 30 32 54 56 46 39 29 21 16 8 357 354 349 1 49 58 58 37 23 7 11 29 18 110 141 150 171 172 155 163 151 149 151 300
36 34 35 34 47 41 22 17 20 22 22 30 47 53 56 42 22 18 15 13 352 351 12 32 42 38 37 25 17 28 29 346 351 69 92 77 73 85 159 271 215 161 212
51 42 52 48 38 39 35 26 23 18 24 25 24 26 29 41 28 9 9 10 2 5 18 24 24 18 22 21 30 36 17 1 20 54 61 52 45 33 21 16 16 38 104
66 43 64 75 63 40 36 35 28 25 26 23 17 18 19 24 14 6 3 7 10 15 21 21 18 20 12 26 47 25 15 30 48 57 58 50 37 33 27 15 16 22 38
97 67 71 69 70 59 37 40 42 25 20 17 16 15 15 25 15 2 355 3 6 11 13 24 31 41 43 45 46 38 43 47 54 59 60 49 35 33 28 18 16 12 38
89 85 85 83 88 85 67 43 45 53 35 19 7 13 18 18 4 0 8 8 2 7 11 29 37 35 37 37 40 39 36 37 42 40 45 42 37 39 29 19 20 30 42
70 67 68 91 96 120 121 93 51 60 55 54 44 40 59 30 6 11 16 21 24 28 42 43 40 37 37 36 38 37 35 33 31 36 39 39 37 39 37 27 29 35 36
68 64 56 52 68 91 127 143 137 88 53 52 49 48 46 28 21 17 18 34 36 40 48 45 41 38 37 36 35 36 33 25 27 35 35 31 28 31 35 33 28 26 27
89 82 76 65 53 59 64 82 116 139 139 111 63 46 38 34 28 23 25 44 43 42 44 41 37 34 34 34 30 31 30 24 25 30 29 25 24 29 34 33 34 23 17
65 63 56 62 64 84 90 88 75 79 90 94 96 37 355 28 36 36 36 45 48 43 40 40 34 32 31 30 25 25 31 27 25 27 27 22 19 25 27 24 28 25 25
91 62 15 332 157 126 99 98 92 87 84 76 62 31 7 33 44 35 38 40 45 45 42 45 38 31 26 23 17 16 30 33 25 23 21 20 18 21 21 23 22 23 23
140 139 238 282 25 78 67 80 93 93 91 89 85 55 16 39 54 45 43 44 46 44 42 50 50 32 23 19 13 17 30 37 28 16 12 13 17 18 18 22 19 27 27
160 166 192 177 107 78 31 71 98 107 115 120 137 141 80 63 67 61 58 59 57 56 48 56 60 35 19 17 14 19 32 34 25 10 2 360 5 16 21 30 29 35 31
286 176 176 152 132 129 236 224 144 134 129 131 136 136 131 113 101 87 84 84 78 71 55 56 69 45 25 23 38 44 38 18 356 349 347 354 10 22 31 38 39 41 39
285 244 228 183 164 175 216 206 159 146 139 141 142 132 128 130 117 101 97 95 96 89 80 70 45 39 65 58 53 56 40 11 347 340 339 359 28 30 40 44 40 37 37
283 262 237 233 185 186 210 201 181 175 165 160 151 143 142 138 133 128 125 121 113 105 94 84 57 42 68 72 64 51 21 16 16 352 334 17 44 36 44 53 57 53 47
271 267 250 234 209 204 209 212 201 180 168 161 150 144 146 145 143 143 142 143 141 138 123 107 94 82 86 84 70 45 26 18 10 1 358 47 62 38 31 52 66 65 62